Precipitable_Water
0.31 0.33 0.46 0.41 0.28 0.31 0.37 0.55 0.81 0.82 0.79 0.91 0.97 0.91 0.87 0.98 0.90 0.81 1.71 1.70 1.64 1.53 1.57 1.55 1.51 1.45 1.42 1.40 1.42 1.43 1.38 1.31 1.33 1.33 1.29 1.21 1.12 1.03 0.97 0.91 0.84 0.79 0.75 0.75 0.77 0.80 0.84 0.84 0.81
0.32 0.44 0.44 0.39 0.28 0.29 0.46 0.69 0.73 0.77 0.86 0.94 0.96 0.93 0.76 0.80 1.04 1.25 1.40 1.60 1.50 1.47 1.52 1.51 1.47 1.44 1.43 1.41 1.38 1.30 1.24 1.25 1.23 1.19 1.13 1.06 0.97 0.90 0.86 0.81 0.76 0.69 0.66 0.64 0.64 0.65 0.67 0.70 0.75
0.40 0.48 0.34 0.38 0.33 0.37 0.38 0.66 0.70 0.74 0.79 0.72 0.75 0.87 0.79 0.71 0.96 1.15 1.52 1.48 1.44 1.42 1.43 1.49 1.48 1.44 1.40 1.32 1.21 1.17 1.15 1.15 1.10 1.07 1.00 0.92 0.84 0.81 0.77 0.72 0.65 0.62 0.61 0.61 0.60 0.59 0.60 0.63 0.67
0.44 0.50 0.36 0.38 0.37 0.53 0.58 0.71 0.75 0.76 0.78 0.76 0.61 0.65 0.86 0.99 1.04 1.23 1.44 1.46 1.32 1.35 1.37 1.37 1.34 1.25 1.17 1.10 1.10 1.10 1.08 1.05 1.01 0.96 0.85 0.80 0.79 0.77 0.72 0.67 0.64 0.61 0.58 0.57 0.56 0.53 0.53 0.54 0.53
0.54 0.36 0.30 0.37 0.48 0.68 0.66 0.70 0.72 0.68 0.65 0.71 0.73 0.72 0.81 1.02 1.06 1.11 1.18 1.17 0.99 1.08 1.05 1.02 1.01 0.98 0.96 0.97 0.98 0.97 0.95 0.90 0.85 0.76 0.74 0.75 0.75 0.72 0.69 0.70 0.66 0.60 0.58 0.58 0.55 0.53 0.53 0.53 0.54
0.39 0.37 0.35 0.35 0.49 0.63 0.63 0.67 0.69 0.71 0.69 0.82 0.80 0.74 0.79 0.82 0.80 0.90 0.97 0.94 0.74 0.74 0.83 0.85 0.85 0.85 0.83 0.81 0.80 0.80 0.78 0.74 0.70 0.67 0.69 0.72 0.73 0.71 0.70 0.65 0.58 0.55 0.55 0.56 0.56 0.55 0.54 0.53 0.54
0.36 0.42 0.40 0.43 0.52 0.58 0.62 0.64 0.54 0.62 0.61 0.74 0.89 0.66 0.77 0.75 0.69 0.75 0.80 0.85 0.75 0.70 0.69 0.75 0.75 0.72 0.68 0.69 0.69 0.67 0.63 0.59 0.59 0.63 0.71 0.79 0.90 0.89 0.87 0.82 0.80 0.76 0.69 0.74 0.73 0.73 0.72 0.68 0.65
0.47 0.42 0.41 0.50 0.50 0.52 0.61 0.48 0.46 0.50 0.51 0.68 0.76 0.61 0.66 0.74 0.62 0.68 0.70 0.72 0.74 0.77 0.79 0.75 0.76 0.79 0.70 0.52 0.53 0.53 0.55 0.60 0.66 0.72 0.89 0.98 0.98 0.98 0.98 1.00 0.98 0.94 0.92 0.88 0.86 0.82 0.81 0.79 0.79
0.50 0.38 0.36 0.47 0.46 0.48 0.50 0.38 0.35 0.45 0.46 0.56 0.59 0.66 0.77 0.72 0.61 0.58 0.61 0.65 0.78 0.81 0.85 0.87 0.83 0.82 0.81 0.75 0.65 0.65 0.79 0.85 0.92 0.95 1.03 1.06 1.05 1.01 1.01 1.03 0.98 0.93 0.90 0.91 0.87 0.83 0.82 0.81 0.81
0.36 0.30 0.32 0.36 0.40 0.37 0.32 0.25 0.20 0.31 0.36 0.50 0.58 0.74 0.77 0.70 0.54 0.49 0.49 0.54 0.75 0.82 0.90 0.91 0.87 0.84 0.81 0.85 0.92 0.91 0.96 0.99 1.04 1.01 1.05 1.06 1.05 1.09 1.04 1.03 1.00 0.95 0.93 0.93 0.87 0.85 0.84 0.84 0.81
0.30 0.26 0.27 0.29 0.30 0.26 0.23 0.18 0.21 0.24 0.23 0.29 0.42 0.60 0.70 0.68 0.58 0.50 0.52 0.60 0.68 0.81 0.91 0.91 0.79 0.80 0.86 0.89 0.98 1.00 1.03 1.02 1.11 1.13 1.04 1.03 1.06 1.07 1.02 0.97 0.91 0.85 0.88 0.88 0.87 0.87 0.85 0.81 0.80
0.26 0.26 0.25 0.25 0.23 0.18 0.16 0.16 0.16 0.19 0.23 0.32 0.49 0.60 0.62 0.59 0.52 0.52 0.59 0.69 0.81 0.91 1.05 1.06 0.88 0.73 0.84 0.90 0.99 1.00 1.02 1.03 1.09 1.07 1.05 0.96 0.96 0.92 0.85 0.82 0.79 0.82 0.82 0.82 0.84 0.83 0.78 0.78 0.78
0.25 0.23 0.24 0.24 0.20 0.17 0.16 0.14 0.17 0.20 0.26 0.33 0.46 0.59 0.63 0.65 0.68 0.72 0.73 0.78 0.88 0.97 1.11 1.11 0.98 0.74 0.79 1.00 1.06 1.04 1.02 0.99 0.96 0.99 0.97 0.85 0.91 0.85 0.83 0.82 0.80 0.78 0.80 0.80 0.78 0.77 0.74 0.75 0.75
0.22 0.20 0.16 0.12 0.11 0.15 0.16 0.18 0.21 0.21 0.25 0.31 0.41 0.56 0.62 0.66 0.71 0.77 0.79 0.81 0.88 1.02 1.23 1.28 1.28 1.17 0.95 0.98 1.00 0.96 0.97 0.92 0.93 0.92 0.91 0.87 0.86 0.86 0.85 0.83 0.83 0.82 0.86 0.87 0.84 0.79 0.76 0.77 0.78
0.22 0.15 0.18 0.18 0.22 0.20 0.23 0.25 0.25 0.28 0.28 0.29 0.37 0.50 0.59 0.68 0.77 0.80 0.83 0.83 0.82 1.12 1.20 1.30 1.35 1.31 1.19 1.16 1.03 0.97 0.96 0.87 0.90 0.89 0.92 0.92 0.93 0.92 0.91 0.90 0.88 0.85 0.86 0.85 0.82 0.80 0.82 0.78 0.77
0.20 0.24 0.22 0.30 0.33 0.29 0.30 0.25 0.31 0.35 0.32 0.27 0.28 0.33 0.48 0.61 0.74 0.83 0.85 0.86 0.89 0.97 1.23 1.25 1.24 1.20 1.23 1.20 1.11 0.95 0.95 0.92 0.91 0.95 0.99 1.00 1.00 0.97 0.93 0.89 0.82 0.85 0.86 0.85 0.84 0.82 0.82 0.78 0.79
0.27 0.24 0.26 0.29 0.32 0.30 0.30 0.28 0.34 0.36 0.35 0.33 0.31 0.32 0.35 0.44 0.65 0.79 0.83 0.84 0.93 1.06 1.11 1.15 1.15 1.17 1.17 1.11 1.07 1.02 0.99 0.91 0.90 0.93 0.94 0.96 0.94 0.93 0.90 0.84 0.80 0.82 0.82 0.82 0.83 0.81 0.77 0.71 0.69
0.26 0.27 0.29 0.29 0.28 0.25 0.24 0.29 0.37 0.38 0.38 0.36 0.34 0.35 0.37 0.44 0.63 0.81 0.88 0.92 0.94 1.05 1.19 1.18 1.20 1.18 1.11 1.07 1.08 1.02 0.96 0.91 0.92 0.91 0.90 0.90 0.88 0.86 0.85 0.86 0.82 0.80 0.78 0.78 0.74 0.71 0.68 0.66 0.62
0.33 0.27 0.27 0.30 0.31 0.27 0.23 0.31 0.36 0.39 0.39 0.37 0.41 0.46 0.51 0.57 0.69 0.81 0.88 0.93 0.98 1.15 1.14 1.13 1.06 1.05 1.05 1.05 0.94 0.87 0.86 0.89 0.89 0.90 0.89 0.86 0.84 0.85 0.83 0.79 0.76 0.73 0.65 0.63 0.62 0.59 0.53 0.51 0.54
0.29 0.27 0.28 0.28 0.30 0.24 0.24 0.30 0.34 0.38 0.39 0.42 0.44 0.50 0.54 0.61 0.68 0.77 0.82 0.88 0.98 1.02 1.04 1.01 0.97 0.90 0.90 0.90 0.90 0.89 0.90 0.88 0.86 0.83 0.82 0.87 0.87 0.87 0.78 0.73 0.69 0.64 0.59 0.58 0.54 0.50 0.48 0.47 0.49
0.27 0.26 0.27 0.24 0.27 0.23 0.27 0.30 0.32 0.38 0.44 0.49 0.50 0.55 0.56 0.58 0.62 0.70 0.77 0.82 0.89 0.90 0.89 0.85 0.83 0.80 0.84 0.86 0.86 0.86 0.85 0.80 0.77 0.81 0.84 0.81 0.79 0.68 0.65 0.64 0.61 0.61 0.60 0.54 0.53 0.53 0.49 0.44 0.49
0.22 0.31 0.28 0.23 0.19 0.18 0.29 0.23 0.32 0.37 0.39 0.44 0.52 0.54 0.56 0.59 0.64 0.65 0.69 0.71 0.73 0.74 0.75 0.76 0.78 0.80 0.80 0.82 0.81 0.78 0.74 0.74 0.80 0.79 0.75 0.72 0.67 0.65 0.65 0.63 0.62 0.60 0.57 0.55 0.54 0.52 0.51 0.50 0.45
0.25 0.29 0.23 0.22 0.20 0.24 0.26 0.27 0.35 0.43 0.42 0.47 0.53 0.55 0.60 0.63 0.62 0.61 0.64 0.67 0.70 0.73 0.74 0.77 0.77 0.79 0.83 0.82 0.80 0.78 0.76 0.70 0.68 0.69 0.65 0.66 0.66 0.66 0.65 0.64 0.61 0.56 0.54 0.52 0.53 0.49 0.48 0.47 0.45
0.34 0.31 0.32 0.34 0.28 0.20 0.30 0.32 0.34 0.43 0.46 0.50 0.54 0.58 0.63 0.58 0.61 0.63 0.67 0.70 0.72 0.76 0.77 0.78 0.79 0.79 0.78 0.76 0.77 0.70 0.65 0.64 0.62 0.63 0.61 0.62 0.64 0.65 0.63 0.62 0.59 0.57 0.53 0.52 0.49 0.48 0.47 0.47 0.46
0.32 0.30 0.23 0.23 0.26 0.24 0.36 0.36 0.45 0.52 0.53 0.53 0.56 0.60 0.60 0.62 0.61 0.63 0.68 0.71 0.72 0.73 0.75 0.77 0.76 0.71 0.72 0.71 0.71 0.71 0.69 0.68 0.65 0.62 0.61 0.58 0.59 0.58 0.56 0.53 0.49 0.47 0.46 0.45 0.44 0.45 0.47 0.48 0.44
0.30 0.29 0.22 0.18 0.21 0.24 0.29 0.29 0.38 0.51 0.56 0.59 0.61 0.59 0.63 0.64 0.64 0.65 0.67 0.70 0.75 0.76 0.75 0.73 0.72 0.72 0.72 0.73 0.70 0.68 0.68 0.69 0.68 0.62 0.65 0.61 0.57 0.54 0.50 0.48 0.46 0.44 0.42 0.42 0.42 0.43 0.44 0.45 0.47
0.33 0.20 0.29 0.24 0.27 0.19 0.29 0.38 0.47 0.53 0.54 0.58 0.59 0.61 0.64 0.63 0.63 0.65 0.70 0.74 0.78 0.78 0.78 0.76 0.73 0.73 0.73 0.71 0.70 0.69 0.70 0.69 0.65 0.66 0.64 0.56 0.53 0.49 0.45 0.42 0.34 0.33 0.34 0.34 0.36 0.36 0.36 0.39 0.41
0.29 0.30 0.22 0.25 0.15 0.14 0.23 0.32 0.36 0.45 0.49 0.52 0.53 0.54 0.58 0.64 0.68 0.70 0.70 0.73 0.74 0.74 0.74 0.73 0.72 0.69 0.70 0.68 0.68 0.66 0.65 0.64 0.60 0.57 0.52 0.48 0.46 0.41 0.34 0.30 0.32 0.33 0.35 0.36 0.37 0.35 0.35 0.35 0.37
0.30 0.29 0.26 0.25 0.24 0.16 0.15 0.24 0.43 0.46 0.49 0.49 0.52 0.58 0.61 0.65 0.67 0.70 0.70 0.69 0.69 0.70 0.68 0.64 0.64 0.62 0.61 0.61 0.58 0.54 0.51 0.48 0.48 0.45 0.42 0.40 0.36 0.32 0.32 0.31 0.31 0.30 0.30 0.29 0.28 0.27 0.27 0.28 0.29
0.29 0.28 0.27 0.19 0.21 0.26 0.24 0.20 0.43 0.47 0.53 0.56 0.58 0.63 0.65 0.66 0.68 0.67 0.66 0.66 0.65 0.62 0.60 0.56 0.54 0.53 0.51 0.48 0.47 0.48 0.49 0.50 0.46 0.44 0.42 0.38 0.34 0.33 0.32 0.28 0.26 0.25 0.25 0.25 0.25 0.25 0.26 0.25 0.24
Wind_Speed
11 11 10 9 7 8 8 7 9 6 4 3 3 4 3 2 6 5 6 6 5 6 6 5 4 3 2 1 2 2 3 3 4 5 7 8 9 10 10 10 10 11 12 13 12 12 12 12 12
11 11 11 9 8 8 8 5 3 7 9 5 3 1 2 1 1 4 5 5 3 5 5 5 3 2 1 1 2 3 4 4 4 5 7 8 9 10 10 10 10 11 12 13 13 13 13 11 11
10 10 9 8 9 10 12 9 8 7 5 5 5 5 5 3 4 6 7 5 4 4 5 5 4 4 3 3 3 3 3 3 4 5 7 8 8 9 9 10 10 11 12 12 12 12 12 12 11
10 9 8 6 9 7 12 9 8 5 2 3 4 4 2 2 3 5 6 4 4 5 5 7 7 5 4 3 3 2 3 3 4 6 6 7 8 8 9 10 11 11 12 12 13 13 13 13 12
8 10 8 6 4 6 9 8 5 3 4 2 1 2 0 1 4 6 6 6 5 7 8 8 7 5 4 2 2 1 2 4 4 5 6 7 8 9 10 11 11 12 12 13 14 14 14 14 14
9 8 7 7 6 8 6 6 4 2 5 4 3 1 2 1 4 7 7 7 9 10 9 7 6 4 2 1 1 1 2 4 4 6 7 8 9 10 11 11 12 13 14 15 16 16 16 17 17
10 7 8 7 9 8 5 2 3 8 4 4 4 1 4 3 6 8 9 10 11 10 8 6 4 2 1 1 1 2 3 4 5 6 7 8 10 11 11 12 14 14 15 16 17 18 18 19 18
9 5 3 7 8 7 5 2 1 2 3 4 4 3 6 6 10 12 11 11 10 8 6 4 2 2 2 2 2 3 4 5 6 7 8 9 10 11 13 14 14 15 16 17 17 18 18 18 17
8 5 8 13 12 8 5 4 4 3 3 3 4 7 9 12 12 11 10 9 8 6 4 3 1 1 1 3 3 3 4 5 7 7 9 10 11 12 14 15 15 16 17 17 18 19 18 18 18
7 3 4 6 10 7 6 5 5 7 4 2 5 10 12 11 10 9 8 7 6 4 4 2 2 3 3 3 4 4 5 6 7 9 12 12 13 14 15 15 16 18 18 19 20 19 19 19 19
5 7 5 3 8 5 5 5 4 6 4 8 12 13 11 9 8 8 7 7 6 5 4 4 4 4 5 5 5 5 6 8 9 11 13 14 15 14 16 17 18 19 20 20 20 20 20 20 20
4 4 6 4 2 3 5 7 5 3 8 11 11 12 9 7 7 7 8 8 7 6 6 5 5 5 5 5 5 7 7 9 10 13 13 15 16 17 17 19 20 21 21 21 20 20 21 21 20
6 4 3 5 4 4 7 6 5 6 8 9 10 10 8 6 6 7 7 9 8 7 8 8 7 6 6 6 6 8 11 11 13 14 16 17 17 18 19 21 22 23 22 22 22 23 24 23 23
7 4 6 7 6 5 5 5 5 6 6 6 9 9 8 7 6 5 6 8 9 10 11 7 9 7 5 7 10 12 12 14 16 16 18 19 20 21 22 23 24 24 24 24 25 26 26 26 27
10 9 8 7 7 5 6 3 6 7 6 5 6 7 8 8 8 7 6 6 9 9 11 9 3 7 10 11 14 15 13 17 18 21 21 22 23 24 25 26 25 26 27 28 29 29 30 31 31
7 7 7 6 5 4 4 5 8 8 5 5 6 6 7 9 10 9 8 8 8 10 12 11 14 17 13 14 16 14 17 19 21 24 24 24 25 25 26 26 28 30 31 32 33 34 34 35 34
4 5 7 6 6 3 2 2 10 6 5 5 7 8 8 9 10 10 9 9 10 11 13 16 18 14 14 16 15 16 19 22 24 23 24 26 27 28 28 30 33 35 36 36 36 37 37 38 39
3 2 9 7 4 3 3 1 4 4 5 7 7 8 9 6 5 5 4 4 7 10 12 12 14 15 16 17 17 20 21 22 23 25 27 27 28 30 33 37 40 40 41 40 40 40 40 40 42
1 4 9 5 3 2 4 4 2 2 3 4 2 4 2 2 1 3 4 5 7 8 11 14 16 18 19 19 20 21 23 24 27 28 29 31 34 35 42 41 40 41 39 39 40 42 43 43 44
3 2 2 2 2 4 3 5 5 2 1 3 1 2 1 1 3 5 7 9 10 11 12 15 15 17 19 21 22 24 26 28 30 31 32 35 38 43 42 41 41 41 41 42 43 44 46 46 46
2 3 4 4 6 5 4 4 4 3 1 1 2 1 3 4 6 9 10 12 13 15 16 17 18 19 21 23 26 28 29 30 32 34 37 40 39 38 40 40 42 43 45 46 47 48 49 49 48
2 3 5 7 5 5 3 5 7 5 3 2 2 3 4 5 8 10 11 14 14 15 16 18 19 21 23 26 29 29 30 32 35 37 37 38 39 41 42 44 46 47 49 50 50 50 49 48 48
4 6 7 7 7 6 7 5 9 5 4 5 5 5 6 9 11 12 12 14 15 16 18 20 22 24 26 28 29 30 32 34 34 36 37 40 42 44 46 47 49 51 51 51 50 50 49 49 48
6 7 8 7 6 4 8 5 9 9 8 8 7 7 10 12 14 15 15 14 15 17 19 21 22 25 27 29 30 31 32 34 35 39 41 44 45 46 48 49 50 49 49 48 49 49 49 48 48
5 5 4 4 4 5 7 3 6 6 9 9 9 9 10 12 13 14 15 16 17 18 20 21 22 25 28 29 31 33 35 37 40 43 45 46 48 48 48 49 49 49 50 49 49 48 48 49 49
4 4 2 1 2 6 8 3 6 4 5 6 9 12 12 12 14 16 17 19 20 19 21 22 25 27 28 30 33 36 38 41 43 47 47 48 48 48 49 49 50 51 50 49 49 49 50 51 50
5 5 3 2 4 4 4 3 5 7 8 10 11 12 13 14 14 14 15 15 17 19 22 25 27 29 33 35 38 42 44 45 48 49 46 48 48 49 50 51 51 50 50 50 50 50 50 48 46
6 4 6 6 4 5 5 5 8 9 8 9 9 11 14 13 12 13 15 17 20 22 25 28 32 35 37 40 43 45 47 48 48 46 47 48 49 50 51 50 50 50 50 49 48 47 44 42 39
6 6 7 6 4 3 5 8 6 4 7 9 11 10 11 11 13 15 17 20 23 25 29 34 37 41 42 45 46 48 48 47 47 46 48 50 50 50 49 49 50 49 48 47 45 41 38 35 34
5 6 7 6 8 7 5 10 8 8 10 12 12 12 12 12 15 19 21 24 28 31 35 39 41 42 44 46 48 48 49 49 47 49 51 51 48 46 46 47 49 48 45 41 38 34 31 31 32
Wind_Direction
243 230 226 225 220 209 234 264 208 219 199 90 117 155 142 282 244 255 194 203 220 235 228 245 255 262 275 320 15 40 47 49 48 43 29 20 11 9 9 10 9 7 2 358 353 346 334 326 320
234 227 213 221 221 219 228 170 171 179 174 125 110 161 3 354 124 185 208 205 230 220 222 221 219 200 171 103 72 71 72 64 46 30 16 10 11 13 14 14 11 6 5 1 360 0 360 354 346
224 220 211 220 211 217 223 199 195 190 202 217 254 314 278 235 259 234 205 207 225 212 204 196 177 157 138 113 95 85 71 45 30 12 1 5 5 6 8 6 3 2 2 360 359 1 2 1 357
215 208 215 188 233 259 176 183 192 207 272 191 224 298 356 226 231 206 197 201 186 185 168 157 150 142 126 113 99 80 49 20 359 357 3 3 0 359 358 355 353 352 352 350 349 347 346 344 342
199 196 198 210 250 181 185 193 188 221 252 190 189 199 278 281 189 187 176 171 159 153 148 144 138 130 122 114 90 40 6 356 359 2 354 352 350 349 346 344 342 342 342 340 338 337 334 332 330
192 180 194 226 213 172 177 181 205 237 245 170 126 124 206 161 165 168 163 157 150 147 145 142 137 129 117 94 38 10 358 355 351 347 343 343 343 341 338 337 336 334 332 330 328 325 323 322 320
182 193 217 229 210 179 175 164 316 202 208 200 198 197 190 168 163 158 154 149 146 145 144 142 137 123 84 52 1 346 342 341 338 339 337 337 339 336 337 335 332 330 327 325 322 321 318 316 314
174 203 233 200 193 202 200 213 140 159 200 183 228 205 178 168 149 144 145 145 147 147 148 147 139 118 76 33 2 345 337 336 335 337 333 332 335 333 331 331 331 330 329 328 326 324 323 320 317
197 216 236 227 226 206 217 234 236 220 215 260 256 166 167 151 147 148 149 152 157 161 173 175 190 215 336 359 343 339 335 333 330 332 330 326 327 325 327 327 328 328 327 326 325 325 322 320 318
174 197 226 161 171 191 218 231 223 224 206 210 155 151 153 153 159 164 173 175 179 188 192 218 245 252 280 318 324 329 335 328 330 330 329 324 322 319 321 321 322 323 322 320 321 322 321 319 317
221 201 163 150 163 194 204 181 195 168 188 170 150 155 159 168 181 189 198 199 207 219 219 246 261 268 272 297 306 311 320 325 322 323 328 327 325 326 324 322 321 321 320 317 317 318 318 316 315
198 161 168 194 190 193 192 176 175 186 210 170 162 163 167 178 199 210 215 218 221 228 226 254 272 266 284 302 300 298 310 317 316 319 322 323 322 321 321 320 320 318 318 315 315 315 316 313 312
170 177 199 204 196 162 152 170 175 154 145 167 165 169 176 189 210 222 230 229 235 236 232 259 276 268 279 292 299 307 311 312 313 315 317 318 317 316 317 316 317 316 316 314 311 311 312 309 307
186 165 155 160 149 166 179 183 172 180 165 155 173 186 201 210 219 225 243 243 244 246 246 269 265 268 277 297 299 303 303 308 310 310 311 314 312 312 314 313 313 312 312 311 308 308 307 306 304
153 141 146 150 149 157 177 216 205 180 166 175 189 211 222 230 231 233 249 262 256 245 250 251 167 303 279 296 299 295 295 306 306 306 307 308 308 309 311 311 311 311 309 308 306 304 303 302 300
163 161 160 182 166 171 142 257 210 184 193 205 212 232 237 245 246 243 252 264 260 260 244 271 290 297 280 294 299 291 298 303 306 306 305 308 307 308 309 308 308 309 306 305 303 302 299 300 298
167 196 189 187 182 166 190 339 171 197 209 236 247 249 255 264 257 246 254 266 265 259 256 276 294 288 293 291 294 300 299 303 304 306 308 308 309 309 309 308 309 307 305 303 302 301 299 298 297
197 250 199 170 191 174 254 304 165 208 258 271 267 268 252 279 268 249 260 288 293 270 268 282 294 292 291 294 297 300 301 304 307 307 307 307 306 306 307 305 306 304 303 301 299 298 297 297 297
166 75 130 145 151 243 267 193 164 51 33 36 82 53 147 189 211 262 296 295 294 284 285 290 296 296 293 293 298 302 303 303 306 307 308 308 306 306 307 305 304 305 304 302 301 299 298 297 296
227 152 88 141 291 278 244 230 211 222 311 35 100 102 138 221 276 285 296 302 294 287 290 295 296 300 297 296 299 302 302 303 303 304 305 307 307 307 306 305 304 304 302 302 301 299 298 296 297
126 194 265 281 301 296 253 241 214 231 217 27 61 319 288 268 273 282 288 291 292 292 292 295 297 299 298 299 300 302 302 303 303 304 304 306 308 308 308 307 306 304 302 301 300 299 297 295 295
197 282 283 284 290 258 221 272 244 222 220 239 293 338 318 310 301 295 292 292 292 296 296 296 298 300 301 302 302 303 303 304 304 305 306 307 309 308 307 307 305 303 302 301 300 299 297 295 294
243 273 271 275 274 273 278 266 246 215 274 249 260 284 285 305 304 300 295 292 294 297 299 301 300 302 302 303 304 304 304 305 306 307 308 308 308 308 308 307 306 304 302 301 299 298 296 295 293
279 279 264 267 255 273 277 244 248 245 240 262 271 279 288 300 302 301 299 297 295 298 301 303 306 310 310 307 306 306 306 308 308 308 308 308 307 307 307 307 307 306 305 302 301 299 297 295 293
347 342 298 285 290 252 285 285 254 258 258 258 266 281 295 307 308 307 302 300 301 303 305 306 307 311 312 313 312 311 310 310 310 310 309 309 309 309 309 308 307 306 305 303 301 300 298 297 295
358 46 88 338 300 285 309 257 250 237 247 265 278 283 288 294 302 305 305 306 308 310 313 312 312 312 314 313 312 311 309 309 308 310 308 309 309 309 309 309 308 306 305 303 301 299 298 297 295
13 32 9 31 317 317 277 273 270 256 263 271 283 287 285 296 301 305 317 314 312 313 316 317 316 314 314 313 312 312 311 309 309 310 309 309 309 309 309 309 308 307 306 304 302 301 300 298 296
58 27 17 352 346 315 303 287 275 267 276 295 289 304 300 304 311 317 319 314 315 316 317 317 315 314 313 314 313 312 312 310 311 309 310 310 310 309 310 310 309 308 307 305 304 303 302 301 298
15 5 9 359 2 331 316 303 303 304 291 294 300 304 311 307 310 315 317 316 316 315 316 316 315 314 313 313 313 313 312 310 309 310 310 310 309 309 310 310 310 309 307 306 305 304 303 302 301
359 15 12 6 336 332 316 294 296 297 308 305 304 303 300 301 306 311 313 314 314 313 315 316 315 315 314 314 314 313 313 310 309 310 310 309 309 310 312 313 312 311 309 308 307 307 306 305 304